Lid_Strength_Index
-0 0 2 5 10 11 14 12 9 10 9 6 5 7 8 7 9 12 2 1 0 0 -0 -1 -1 -1 -1 -1 -1 -1 -1 -1 -1 -1 -1 -1 -1 -1 -1 -1 -1 -1 -1 -1 -1 -2 -2 -2 -2
0 1 4 7 11 15 13 11 11 9 7 5 5 6 7 8 4 4 3 0 0 -0 0 0 -1 -1 -1 -1 -1 -1 -1 -1 -1 -1 -1 -1 -1 -1 -1 -1 -1 -1 -1 -1 -1 -2 -2 -2 -2
1 2 7 9 12 15 14 10 9 8 6 6 7 5 6 7 4 3 1 0 -0 0 0 0 -1 -1 -1 -1 -1 -1 -1 -1 -1 -1 -1 -1 -1 -1 -1 -1 -1 -1 -1 -1 -1 -2 -2 -2 -2
3 6 7 11 13 11 10 8 8 8 7 6 6 8 5 3 3 2 0 0 0 0 0 -0 -1 -1 -1 -1 -1 -1 -1 -1 -1 -1 -1 -1 -1 -1 -1 -1 -1 -1 -1 -1 -2 -2 -2 -2 -2
6 7 10 12 12 10 8 8 7 8 7 7 6 8 7 3 1 1 1 0 1 0 0 -0 -1 -1 -1 -1 -1 -1 -1 -1 -1 -1 -1 -1 -1 -1 -1 -1 -1 -1 -2 -3 -3 -3 -2 -2 -3
10 8 12 14 12 9 8 7 7 8 7 7 7 7 7 2 2 1 0 1 0 0 0 0 -1 -1 -1 -1 -2 -2 -2 -1 -1 -1 -1 -1 -1 -1 -2 -2 -2 -2 -3 -3 -3 -3 -3 -4 -3
11 11 12 12 12 10 9 6 8 8 8 7 5 8 6 4 2 1 1 0 0 0 0 0 0 -0 -1 -1 -1 -1 -2 -2 -2 -2 -2 -2 -1 -2 -2 -2 -2 -2 -2 -3 -3 -3 -3 -4 -3
9 10 12 12 11 11 8 7 6 7 7 4 4 8 8 4 2 1 2 1 1 0 0 0 0 0 0 -0 -1 -1 -1 -2 -2 -2 -1 -1 -1 -1 -1 -2 -2 -3 -2 -2 -3 -3 -2 -2 -2
9 12 13 11 11 10 8 9 7 5 6 5 5 5 4 2 2 2 2 2 1 1 0 -0 -0 0 0 -0 -0 -1 -1 -1 -2 -1 -1 -0 -0 -1 -1 -1 -2 -2 -2 -2 -2 -2 -2 -1 -1
10 13 12 9 7 9 7 9 8 7 7 7 6 4 3 2 3 3 3 3 3 2 1 1 -0 -0 -0 -1 -0 -0 -0 -0 -0 0 0 0 -0 -1 -1 -1 -1 -1 -2 -1 -1 -0 -0 1 2
12 12 11 9 6 7 7 8 7 7 9 6 6 5 4 3 3 3 3 3 3 1 1 1 0 -0 -0 -0 -0 -0 -0 -0 0 1 1 0 -1 -1 2 2 2 1 1 3 2 2 2 2 2
13 10 9 9 6 7 7 7 7 6 6 5 4 4 4 4 4 4 4 3 2 2 1 0 0 0 -0 -0 -0 -0 -0 -0 1 1 1 1 1 0 1 2 2 2 2 2 1 1 1 1 2
12 10 10 8 8 7 7 8 7 8 5 5 4 4 4 4 4 3 2 2 2 2 1 1 -0 0 -0 -0 -0 -0 -0 -0 0 1 1 1 1 0 1 2 3 2 2 2 1 1 1 1 2
10 9 9 7 8 7 8 8 8 7 5 5 4 5 4 4 4 3 3 3 2 1 1 0 0 0 0 0 -0 -0 -0 -0 1 1 1 1 1 1 1 3 2 2 2 2 2 1 1 1 1
10 10 9 8 8 8 7 9 8 7 5 6 5 5 4 4 3 3 2 3 2 1 1 1 1 0 0 0 -0 -0 -0 -0 1 2 1 1 0 0 0 2 3 2 3 2 2 2 2 2 2
10 11 12 10 8 8 8 11 9 7 6 6 6 5 5 4 4 3 2 2 2 2 2 1 0 0 0 1 1 1 -0 0 1 1 1 1 0 -0 1 2 3 2 2 2 2 3 3 3 3
12 13 12 10 8 8 9 11 7 6 6 7 6 6 5 5 4 3 2 3 3 3 2 2 2 2 2 2 1 1 0 1 1 1 1 0 0 0 1 2 2 2 2 2 2 2 3 3 3
14 13 11 12 10 8 10 10 8 7 6 7 7 6 6 5 5 3 2 2 3 4 2 1 2 1 1 1 1 1 1 1 1 1 1 1 1 1 1 2 2 2 2 2 2 3 3 3 3
11 12 12 12 9 9 10 10 8 7 7 7 7 6 6 6 4 3 2 2 2 1 1 2 2 2 1 1 2 2 2 1 1 1 1 1 1 1 1 1 2 2 2 2 3 3 4 4 4
10 11 13 10 8 9 11 11 9 8 7 6 7 6 6 6 5 4 4 3 3 2 1 2 2 2 2 1 1 2 2 1 1 2 2 2 1 0 -0 1 1 1 2 2 3 3 3 3 3
12 12 12 11 10 10 11 11 11 9 8 7 6 6 6 6 5 4 4 4 3 3 3 2 2 2 2 1 0 1 1 1 3 2 2 2 1 2 2 1 1 2 2 2 2 2 3 2 1
12 10 10 10 12 14 11 16 12 11 9 8 8 7 7 6 5 4 4 4 4 3 2 2 2 2 2 3 2 2 3 4 3 3 2 2 2 2 1 1 1 1 1 1 0 -0 1 1 3
10 9 10 11 12 13 12 14 12 11 10 9 8 7 6 5 5 4 4 3 2 2 2 2 2 2 2 2 2 2 3 3 3 3 3 3 2 1 1 1 1 1 1 1 1 1 1 1 2
8 10 11 12 13 16 13 14 14 12 11 9 8 7 6 5 5 4 3 3 3 3 3 2 2 3 3 3 3 3 4 3 3 3 3 3 2 1 2 1 1 1 1 1 1 1 1 1 1
10 13 16 16 17 17 13 14 13 10 9 8 8 7 6 5 5 4 4 4 3 3 2 2 3 3 2 2 2 2 3 3 4 3 3 3 3 3 2 2 3 3 2 2 1 1 1 1 2
11 13 15 18 19 17 12 16 13 8 7 7 6 6 5 5 5 4 4 4 4 3 3 3 3 3 3 3 3 3 4 3 3 3 4 4 4 3 3 3 3 3 2 1 1 2 2 1 2
11 13 12 14 16 16 15 13 10 8 8 7 7 6 6 6 5 5 4 4 3 3 4 3 3 3 3 4 4 4 3 3 4 4 4 4 4 3 2 3 3 2 1 1 1 2 2 1 2
10 9 13 14 18 20 16 15 14 12 10 8 8 7 7 6 5 5 4 4 3 4 3 3 3 4 4 4 4 4 3 4 4 4 4 4 4 3 3 3 3 2 2 3 3 3 2 2 2
11 12 12 13 15 17 19 16 11 10 9 9 8 7 7 6 5 4 4 4 4 4 4 4 4 4 5 4 4 4 4 4 4 4 4 4 4 3 3 3 3 2 3 3 3 3 2 2 2
10 12 13 15 16 15 15 15 9 9 8 8 7 6 7 6 5 4 4 4 4 4 4 4 4 4 4 4 4 4 5 5 5 4 4 3 3 3 3 3 3 3 3 3 3 3 3 3 3